Theta_e
336 333 329 325 321 318 318 319 320 320 322 328 333 335 336 336 337 337 336 335 335 335 335 336 335 334 334 334 334 336 336 332 329 327 325 325 324 324 324 324 323 322 320 320 321 323 325 324 322 317 311 305 302 303 301 299 299 301 303 305 308 310 311 312 312 312 310 308 310 311 311 312 311 310 309 308 308 308 309 309 309 308 308 308 309
337 336 335 335 332 327 325 324 324 326 330 334 336 337 337 337 337 337 337 335 335 335 334 334 335 334 334 334 335 337 334 330 327 325 324 324 324 323 321 320 319 317 314 311 310 312 316 316 312 308 307 309 310 310 306 303 303 305 309 311 312 312 311 313 313 313 313 311 311 312 312 312 312 312 311 311 311 310 311 311 311 311 311 310 310
338 338 336 337 338 337 336 334 334 335 336 337 337 337 337 337 337 337 336 334 334 334 333 333 334 334 334 334 336 336 333 328 326 325 325 325 324 322 320 318 317 314 310 307 305 307 310 311 311 312 314 315 315 315 313 311 310 310 312 312 312 313 312 313 313 313 314 312 312 312 311 311 311 312 311 311 311 311 311 311 310 311 312 311 311
338 339 338 338 339 339 339 338 338 338 337 337 337 337 337 337 337 337 335 333 334 334 332 333 333 333 333 335 337 336 332 327 325 324 325 324 323 321 319 317 315 312 308 306 306 308 312 314 316 318 318 316 316 316 315 314 314 314 312 312 312 313 312 313 312 312 313 312 312 311 311 311 311 311 311 311 310 310 310 310 310 311 311 312 312
339 339 339 339 339 339 338 339 338 337 337 337 336 336 337 336 336 336 334 333 333 333 332 332 333 333 333 335 337 335 331 326 325 325 324 323 320 318 317 315 313 309 306 305 305 306 309 313 316 318 318 317 316 314 313 313 313 313 311 311 310 311 311 312 313 312 312 312 311 310 310 310 311 311 311 311 310 310 310 309 309 310 310 311 311
340 340 340 339 339 338 338 338 337 337 337 336 336 336 336 335 335 335 334 331 330 331 331 332 333 333 333 335 336 335 329 326 325 325 322 320 317 315 313 312 309 306 305 305 305 305 307 310 313 315 316 315 315 313 312 311 311 311 311 310 310 310 311 310 312 312 312 312 311 309 310 310 310 311 311 310 309 309 310 309 309 310 310 310 311
340 340 339 339 338 338 338 337 337 336 336 336 336 336 336 335 335 335 333 329 328 330 331 332 333 333 334 335 336 333 328 326 326 323 320 317 315 313 311 309 306 304 304 303 304 306 308 309 310 312 313 312 313 312 312 311 310 310 310 311 310 310 311 311 311 312 312 312 311 310 310 310 310 310 311 310 309 309 310 309 309 310 310 310 310
340 339 339 339 338 338 338 337 336 336 336 336 336 336 335 335 334 334 332 328 326 328 329 331 333 334 335 336 335 332 329 327 324 319 316 315 313 311 309 307 304 302 302 302 304 307 308 308 309 310 311 312 312 311 311 311 310 310 309 310 311 310 310 311 310 311 311 311 311 310 309 310 310 310 310 309 309 310 310 309 309 310 309 310 309
339 339 339 339 339 337 337 336 336 336 336 336 335 335 334 334 334 334 333 329 325 326 327 329 331 334 335 335 333 330 328 324 319 315 314 312 311 310 308 305 303 302 302 301 301 303 304 305 305 305 307 309 310 310 310 311 311 310 309 309 310 310 309 310 310 310 310 310 310 309 309 309 309 310 310 309 309 309 309 309 309 310 309 309 309
338 338 339 339 339 337 336 336 336 336 336 335 334 334 333 333 334 333 333 330 325 324 325 326 329 331 332 332 329 326 322 317 314 313 312 310 309 308 307 305 304 304 303 301 299 299 300 301 301 302 303 304 305 306 307 309 310 310 309 308 308 309 309 308 309 310 309 309 309 309 308 308 309 309 309 309 309 309 309 309 309 309 309 309 308
338 338 338 338 338 336 336 336 336 336 335 335 334 334 334 333 334 333 331 328 325 324 323 323 323 324 324 323 320 317 314 313 312 311 310 310 309 308 307 305 304 304 304 303 302 302 301 299 300 301 301 302 302 301 302 304 308 309 307 306 307 308 308 307 308 309 309 308 308 309 308 308 308 308 308 308 308 308 308 308 308 309 308 308 308
337 338 337 337 337 337 336 336 336 336 335 334 334 334 334 333 333 333 330 325 323 322 322 321 319 316 315 315 314 313 312 311 310 310 310 309 309 308 307 305 305 305 304 304 304 304 303 301 300 300 300 301 301 300 300 301 304 307 306 305 306 307 306 306 307 308 309 308 308 308 308 307 307 308 308 308 308 308 308 307 308 308 308 307 308
337 338 337 337 337 337 336 336 336 335 334 334 333 334 334 332 332 332 330 325 321 320 321 321 318 313 312 312 311 311 311 311 310 310 310 309 309 308 307 306 305 305 305 304 304 305 305 303 301 301 300 300 300 300 301 300 301 304 304 303 305 306 305 305 306 307 308 307 307 308 307 307 307 307 307 307 307 308 307 307 307 307 307 307 307
337 338 337 337 337 336 336 335 335 335 334 334 333 333 333 332 331 330 329 326 323 320 320 322 319 314 312 312 311 310 309 309 309 309 309 309 308 307 307 306 305 305 305 305 304 304 304 303 302 300 300 300 300 300 300 300 300 301 302 301 303 304 304 304 305 306 307 307 307 307 307 307 307 307 307 306 307 307 307 307 307 307 307 307 307
338 337 337 336 337 336 335 335 335 334 334 334 333 332 332 332 331 330 328 325 323 321 321 323 321 316 315 317 316 313 312 309 308 308 307 307 307 307 307 306 306 305 305 305 305 304 303 302 302 300 300 300 300 300 300 300 300 300 300 300 301 303 303 303 304 305 307 306 306 307 307 307 307 307 306 306 307 307 307 307 307 306 306 307 306
338 337 336 337 337 336 336 335 334 334 334 333 333 332 332 332 331 331 329 325 322 321 322 324 324 320 319 320 317 316 321 316 308 307 308 307 307 307 307 306 306 305 304 305 304 303 302 301 301 300 300 301 301 301 301 301 300 300 300 299 300 302 302 302 303 305 306 306 306 306 306 306 306 306 306 306 307 307 307 307 306 306 306 306 305
338 337 337 337 336 335 335 334 333 333 333 332 332 331 332 332 331 330 330 328 325 322 322 324 325 324 323 322 319 321 327 318 309 308 308 307 308 307 307 306 305 304 304 303 303 303 301 300 300 300 300 301 301 302 302 301 301 300 300 300 300 301 301 301 303 305 305 305 305 305 306 306 306 306 306 307 307 307 306 306 306 306 306 305 304
338 336 336 336 336 334 334 333 332 332 332 331 330 330 330 330 330 330 329 329 328 324 322 324 324 324 323 324 323 326 326 316 311 311 307 306 307 307 307 306 305 304 304 303 303 303 301 300 300 301 301 302 302 303 302 301 301 301 301 300 300 301 300 300 302 304 304 303 304 304 305 305 305 305 306 307 307 306 306 305 305 305 305 304 304
337 336 336 336 335 334 333 333 332 332 331 330 329 329 329 329 329 329 328 328 329 327 324 324 325 324 323 323 322 323 323 315 313 313 310 308 306 305 307 306 306 305 304 303 303 302 300 300 301 301 302 302 303 303 302 301 301 301 301 301 300 300 301 301 300 300 300 302 304 304 304 304 304 305 306 307 306 305 305 305 305 305 304 304 304
336 335 335 335 334 333 333 333 333 332 331 329 328 328 328 328 328 328 328 327 328 328 326 324 325 324 323 322 321 321 320 318 315 313 315 316 310 306 306 305 305 305 303 303 303 302 301 301 301 302 303 303 304 302 301 301 301 301 301 301 300 301 301 300 298 297 297 299 302 302 302 303 303 304 305 305 305 304 304 304 304 304 304 304 304
335 334 334 333 333 332 332 332 332 331 330 328 327 327 327 328 327 327 328 326 326 328 327 325 325 326 324 321 320 319 317 317 314 311 314 318 316 311 307 304 304 304 303 304 303 301 301 302 302 303 304 304 303 302 301 301 301 301 301 300 300 301 300 299 297 297 296 297 298 299 300 301 303 304 304 304 304 304 304 304 304 304 304 304 304
333 333 332 332 331 331 330 329 329 329 329 328 326 326 326 327 327 327 327 326 325 325 326 326 326 326 326 322 320 317 315 313 312 310 310 312 314 311 307 305 304 303 304 304 303 302 302 303 303 304 303 302 302 302 301 301 300 300 300 300 300 300 299 298 297 296 296 295 295 295 297 301 303 304 304 304 304 304 304 304 304 303 304 304 303
332 332 331 330 329 328 328 327 327 327 326 326 325 325 326 326 326 326 326 326 325 324 324 325 325 325 324 322 320 319 317 315 313 313 311 310 312 311 307 305 304 304 306 304 303 303 303 303 303 303 302 301 301 302 301 300 300 300 300 300 300 299 298 297 296 296 295 294 295 294 296 300 302 303 303 303 303 303 304 304 304 304 303 303 302
331 331 329 329 328 327 326 325 325 324 323 324 324 324 324 324 324 324 324 324 324 323 321 321 322 323 321 319 317 317 318 317 315 315 313 311 313 311 306 306 306 306 307 306 304 304 303 303 302 301 301 301 301 301 300 300 300 300 300 299 299 299 298 297 296 295 295 294 295 295 296 298 300 300 301 300 300 301 302 302 303 302 302 301 301
330 330 328 328 327 326 325 324 323 322 322 323 324 324 324 323 323 322 322 321 320 319 317 316 316 317 318 316 314 313 314 313 313 313 313 311 310 308 306 307 307 307 308 306 303 303 302 301 301 300 300 300 300 300 300 299 299 299 299 299 299 298 297 296 295 295 295 295 295 296 296 297 298 298 299 299 299 299 300 300 300 300 300 300 300
330 329 328 327 326 325 324 324 322 321 321 321 322 322 322 322 321 321 320 319 317 315 314 313 312 311 312 312 311 311 311 310 310 310 311 310 309 309 307 306 306 306 307 305 302 302 302 302 301 299 298 299 299 299 299 299 299 299 298 299 298 297 296 295 295 295 295 296 296 296 297 297 297 298 298 298 299 299 299 299 299 299 300 300 300
330 328 327 326 325 324 323 322 321 320 320 320 320 320 319 319 318 318 318 317 315 313 312 312 311 310 310 310 310 309 308 308 308 308 309 309 308 308 308 307 306 304 303 303 302 302 301 302 302 299 297 298 298 299 299 299 298 298 298 298 296 295 295 295 296 296 296 296 296 297 297 297 297 298 298 298 298 298 298 299 299 299 300 300 300
329 327 326 325 324 323 322 321 320 319 318 318 317 317 315 315 315 316 316 315 313 312 312 311 311 310 310 309 308 308 307 306 306 306 307 307 307 307 307 307 307 306 305 304 303 302 300 300 300 299 297 298 298 298 298 298 298 298 297 296 295 295 295 296 296 296 296 296 296 296 297 297 297 297 297 298 298 298 298 298 299 298 299 299 299
329 327 325 324 323 323 322 320 319 318 317 316 315 314 312 312 313 313 314 313 312 312 311 311 310 310 309 308 307 307 305 305 304 304 304 304 305 306 306 306 306 308 310 308 304 302 301 299 298 298 297 296 297 297 297 297 297 296 295 295 296 296 296 296 297 297 296 296 296 296 296 296 296 297 297 297 297 297 298 298 298 298 298 298 298
328 326 325 324 323 322 321 320 318 317 315 314 313 312 310 310 311 312 312 312 311 310 310 309 309 308 307 307 306 305 304 303 303 302 302 302 302 303 305 305 305 306 308 307 304 302 301 299 297 296 296 295 295 296 296 296 295 295 296 297 297 297 296 296 297 297 296 296 296 296 296 296 296 296 297 297 297 297 297 297 297 297 297 297 298
327 326 324 323 322 321 320 319 318 316 314 313 312 311 310 310 310 311 311 310 309 309 308 308 307 306 306 305 304 303 303 302 302 302 302 301 301 301 301 302 302 303 303 304 304 302 299 298 296 294 294 294 295 295 295 295 295 296 297 297 297 297 296 296 296 297 296 296 296 296 296 296 296 296 296 296 296 297 297 297 297 297 297 297 297
326 325 324 323 322 321 320 319 317 316 314 312 311 311 310 309 310 310 309 309 308 307 306 306 305 305 304 304 303 303 302 302 302 302 302 302 301 300 300 299 299 300 299 300 302 301 298 296 295 294 294 294 294 294 295 296 297 298 297 297 297 297 296 296 296 296 296 296 296 296 296 296 296 296 296 296 296 296 297 297 297 297 297 297 297
326 324 323 323 323 322 320 319 317 316 313 312 310 310 309 309 309 309 308 308 307 306 305 305 304 303 303 303 303 303 303 303 303 303 302 302 302 301 301 300 299 299 298 297 299 299 297 295 295 294 294 294 295 296 297 298 298 298 297 297 297 297 297 297 297 297 296 296 296 296 296 296 296 296 296 296 296 296 296 296 296 296 297 297 297
326 324 324 323 322 322 320 318 317 315 313 312 310 309 308 308 309 308 307 307 306 305 304 303 302 302 302 303 303 303 303 303 303 303 302 302 302 302 301 300 300 298 297 296 297 297 296 296 295 295 295 296 296 297 298 298 298 298 298 298 298 298 298 298 297 297 297 296 296 296 296 296 296 296 296 296 296 296 296 296 296 296 297 297 297
326 325 324 323 322 321 319 318 316 315 313 311 309 309 308 307 307 307 307 306 305 304 303 302 302 302 302 303 303 303 303 303 302 302 302 302 302 301 300 300 299 297 296 295 295 296 297 297 296 296 297 297 297 298 298 298 298 298 298 298 298 298 298 298 298 297 297 297 296 296 296 296 296 296 296 296 296 296 296 296 296 296 297 297 296
326 325 323 323 322 320 318 317 316 314 312 310 309 308 307 306 306 306 306 305 304 304 302 302 302 303 303 303 303 303 303 303 303 302 302 302 301 301 300 299 297 295 295 296 296 297 298 298 297 297 297 298 298 298 298 298 298 298 298 298 298 298 298 298 298 298 297 297 296 296 296 296 296 296 296 296 296 296 296 296 296 296 296 296 296
326 324 323 322 321 320 318 317 315 313 311 309 308 307 307 306 306 305 305 305 304 303 302 302 303 304 303 303 303 303 303 303 303 303 302 302 301 301 299 296 295 295 297 299 299 299 299 298 298 297 297 298 298 298 298 299 298 298 299 299 299 298 298 298 297 297 297 297 296 296 296 296 296 296 296 296 296 296 296 296 296 296 296 296 296
326 324 323 322 321 319 318 316 315 313 310 308 308 307 306 306 305 305 304 304 303 303 303 304 304 304 303 303 303 303 303 302 303 303 303 302 302 300 296 295 296 298 299 300 300 300 300 299 298 298 298 298 298 298 299 299 299 298 298 299 299 298 298 298 298 297 296 296 296 296 296 296 296 296 296 296 296 296 296 296 296 296 296 296 296
325 324 322 322 320 319 318 316 314 312 310 308 307 306 306 306 306 305 305 304 304 304 305 305 305 304 303 303 303 303 302 302 302 302 302 302 301 297 295 296 299 300 300 301 301 301 300 300 298 298 298 298 298 298 299 299 299 298 298 298 298 298 298 298 298 297 296 296 297 296 296 296 296 296 296 296 296 296 296 296 296 296 296 296 296
325 324 322 321 320 318 317 315 313 311 309 308 307 307 306 305 305 305 304 304 304 305 305 304 304 304 304 304 303 303 303 302 301 301 300 300 298 295 296 299 300 300 301 301 301 301 300 299 299 298 298 298 298 299 299 299 298 298 298 297 298 298 298 298 298 298 297 297 297 297 297 297 296 297 296 296 296 296 296 296 296 296 296 296 296
324 324 322 321 319 317 315 314 312 311 309 308 307 307 306 305 305 305 304 304 305 304 304 303 303 303 304 304 304 304 304 303 301 299 298 299 297 295 296 300 300 300 301 301 301 301 300 299 298 298 298 298 298 298 299 299 298 298 298 298 298 298 298 298 298 298 297 297 297 297 297 297 297 297 297 296 296 296 296 296 296 296 296 296 296
324 323 321 320 319 317 315 313 312 310 309 308 307 306 306 305 306 305 304 304 305 304 304 304 303 304 304 304 304 304 304 303 299 295 295 297 296 295 297 300 301 301 301 301 302 301 299 298 298 298 298 298 299 298 298 298 298 298 298 298 298 298 298 298 298 298 298 297 297 297 298 297 297 297 297 297 296 296 296 296 296 296 296 296 295
323 322 321 319 318 317 315 313 312 310 309 308 307 306 306 306 306 305 304 304 304 304 304 304 304 304 304 304 304 303 302 301 297 293 293 295 295 296 298 300 301 302 301 301 302 300 298 298 298 298 298 298 299 299 298 299 299 298 299 299 298 298 298 297 297 298 298 298 297 297 297 298 297 297 297 297 297 296 296 296 296 296 295 295 295
322 320 319 318 317 316 315 314 313 311 309 308 307 306 306 306 306 306 305 304 304 304 303 304 304 304 304 304 304 301 298 296 294 293 294 295 296 296 297 300 302 302 301 302 301 298 297 298 298 298 298 298 299 299 299 299 298 299 299 299 298 298 298 297 296 297 298 298 297 297 297 298 297 297 297 297 297 297 296 296 296 296 295 295 295
321 318 317 318 317 316 315 314 313 311 309 308 307 307 307 306 306 306 305 305 304 303 303 303 304 304 304 304 303 299 295 293 294 294 296 297 296 295 295 299 302 301 301 302 300 298 297 299 299 298 298 299 299 299 299 299 299 299 299 299 299 298 298 298 297 298 298 298 297 296 296 297 297 297 297 297 297 297 297 296 296 296 296 295 295
319 316 317 318 316 315 315 314 313 311 310 309 307 307 307 306 306 306 306 305 304 303 303 304 304 304 303 303 303 301 298 295 293 294 296 298 297 295 295 300 302 301 301 301 299 297 298 299 299 299 299 299 299 299 299 299 299 299 299 299 298 298 298 298 298 298 298 298 297 296 296 297 297 297 297 297 297 297 297 296 296 296 296 295 295
318 317 318 318 316 316 316 314 313 311 310 309 307 307 307 306 306 306 306 305 304 304 304 304 304 304 303 303 303 302 302 299 295 296 298 299 299 298 297 299 302 301 301 301 299 297 298 299 299 299 299 299 299 299 299 299 299 299 299 299 298 298 298 298 298 298 298 298 298 296 296 297 297 296 297 297 297 297 297 297 296 296 296 295 295
318 317 317 317 316 317 315 313 313 311 310 309 308 307 307 306 306 306 305 305 305 304 304 304 304 304 303 303 303 303 304 302 299 299 301 301 301 301 298 297 298 300 301 301 299 297 298 299 299 299 299 299 299 299 299 299 299 299 299 299 298 298 298 298 298 298 298 298 298 297 296 297 297 296 296 297 297 297 297 297 296 296 296 296 295
316 316 316 316 317 317 315 312 312 311 310 309 308 307 307 306 306 306 305 305 305 304 304 304 304 304 304 303 303 303 304 303 301 301 302 302 302 302 300 297 295 297 301 301 298 297 298 299 299 299 299 299 299 299 299 299 299 299 299 299 298 298 298 297 297 297 298 298 297 297 296 296 297 296 296 297 297 297 297 297 297 297 296 296 295
317 316 316 315 316 316 314 312 311 310 310 309 308 308 307 307 306 305 305 305 305 304 304 304 304 304 304 304 304 303 304 304 303 302 302 302 302 301 302 299 294 295 300 300 298 297 299 299 299 299 299 299 299 298 298 299 299 299 299 298 298 298 298 297 296 296 297 298 297 297 296 296 297 296 295 295 297 297 297 298 297 297 296 296 295
317 315 314 315 315 314 313 311 311 310 310 309 308 308 307 307 306 305 305 305 305 304 304 305 304 304 304 304 304 304 304 304 304 303 303 302 302 301 302 299 294 294 297 298 298 298 299 299 299 299 299 299 298 298 298 298 299 298 299 299 298 298 297 297 297 296 296 298 297 297 296 296 296 296 295 294 295 297 298 298 298 297 297 296 295
Wind_Speed
8 8 8 8 8 9 9 8 8 7 6 5 4 4 4 5 4 4 4 4 3 3 3 4 5 4 4 6 8 9 8 9 9 10 10 9 9 8 6 6 6 6 7 7 7 7 7 5 6 7 9 10 11 12 13 14 14 14 14 15 15 16 16 17 17 17 18 19 19 19 20 19 20 21 20 20 20 20 20 20 19 18 18 18 17
8 8 8 7 8 9 9 8 8 7 6 6 6 6 6 6 6 5 4 4 3 4 5 6 7 6 6 9 11 10 10 10 10 10 10 8 7 8 7 7 7 7 8 8 7 7 7 6 7 9 11 12 14 14 14 15 15 16 16 16 16 17 17 17 17 17 17 18 19 19 19 19 19 20 20 21 21 21 21 21 20 20 20 20 20
8 9 9 8 9 9 9 9 8 8 8 8 8 7 7 7 6 5 3 3 4 5 6 8 10 8 9 11 12 12 11 11 11 10 9 7 6 6 7 7 7 7 8 7 7 8 8 9 11 12 13 14 14 14 14 15 16 17 16 16 16 16 16 16 16 17 17 17 18 18 18 18 18 18 19 19 20 20 21 20 20 20 20 21 21
10 10 10 10 10 10 11 11 10 10 10 9 9 8 7 6 6 4 2 3 4 5 7 10 11 10 11 13 14 13 12 11 11 10 8 7 6 5 6 7 7 8 7 7 8 10 11 12 13 13 14 14 15 15 14 15 15 16 16 16 16 16 16 16 16 16 16 16 17 17 17 17 17 17 18 18 19 19 20 20 20 20 20 20 20
11 12 12 12 13 12 12 12 11 11 10 9 8 7 7 6 6 5 3 3 5 6 8 11 13 13 13 15 15 14 13 12 11 9 8 6 6 5 6 6 6 7 7 7 8 10 12 13 13 14 14 14 14 15 15 15 15 16 17 17 17 17 16 16 15 16 16 16 16 17 17 17 17 17 17 18 18 18 19 19 20 19 19 19 20
13 13 13 14 14 13 12 12 11 10 9 8 7 7 7 7 6 6 5 6 8 8 9 12 14 15 16 16 15 14 13 12 10 8 7 6 6 6 6 6 6 6 6 8 8 10 12 13 13 14 14 14 14 14 15 15 16 16 17 18 18 18 17 17 15 15 15 15 15 17 17 17 17 17 17 18 18 18 18 18 19 19 19 19 19
13 13 14 14 14 13 12 11 11 10 8 7 8 8 7 7 7 8 9 10 11 12 11 12 14 16 17 17 15 14 13 12 10 8 7 6 6 6 6 7 7 6 6 7 9 10 12 13 14 14 14 14 13 13 13 14 15 16 16 17 17 18 17 17 16 15 15 15 15 16 17 17 17 17 17 18 18 18 18 18 18 18 18 18 19
13 13 12 13 13 13 12 11 10 9 9 8 8 9 8 8 8 9 12 14 14 14 14 14 15 17 18 17 16 15 13 11 9 8 7 6 6 6 6 7 7 7 7 7 9 10 11 12 12 12 12 12 13 13 13 13 14 15 16 16 16 17 17 17 16 15 15 15 15 16 17 16 17 17 17 18 18 18 19 18 18 18 19 19 19
13 12 12 13 13 13 12 12 11 9 9 9 9 9 9 10 10 10 13 15 16 16 16 16 17 18 17 17 16 14 12 10 9 8 8 7 7 6 6 7 7 8 9 9 9 9 9 9 10 10 10 10 11 12 12 12 13 14 15 16 16 16 16 16 16 16 15 15 15 16 17 17 17 17 17 18 18 18 18 18 18 18 18 19 19
13 12 12 12 12 12 12 12 12 11 11 11 10 10 11 12 11 11 13 16 17 17 17 18 18 18 17 17 16 13 11 10 9 8 7 7 7 7 7 7 7 9 10 11 12 12 11 10 9 9 9 9 11 12 11 11 11 13 15 16 16 15 16 16 15 15 15 16 15 16 17 17 17 17 17 18 18 17 18 18 18 17 18 19 19
14 13 12 12 12 12 11 12 14 14 13 12 11 11 13 13 11 12 15 17 17 18 18 19 19 18 17 16 14 12 10 9 8 7 7 6 6 7 7 7 7 8 9 11 12 12 13 14 12 12 11 10 12 13 13 12 12 13 15 16 15 15 15 16 15 15 15 16 16 16 17 17 17 17 17 18 17 17 17 18 17 17 19 19 20
15 13 12 12 12 13 12 13 15 15 14 13 13 13 13 13 12 12 17 18 18 19 19 19 19 18 16 14 12 9 9 8 7 7 6 6 6 6 6 5 5 6 7 9 10 10 12 14 14 15 14 13 13 14 16 17 16 14 15 16 15 15 15 16 15 15 15 16 16 16 17 17 17 17 17 17 17 16 16 17 17 18 19 20 20
15 14 13 13 13 14 15 16 16 15 14 12 13 13 13 13 12 13 17 20 21 20 19 19 18 16 13 12 10 9 8 7 8 7 6 6 5 4 4 3 4 5 5 6 7 8 9 10 12 13 14 13 14 15 16 18 18 16 14 14 14 14 15 16 16 15 16 17 17 17 17 17 17 17 17 17 16 16 16 17 17 18 19 20 20
16 15 14 13 14 16 17 17 16 15 13 11 12 13 13 13 14 15 17 20 21 22 21 17 13 14 12 10 7 6 6 7 8 8 7 6 4 4 3 2 3 3 3 4 5 5 6 7 9 11 12 13 14 16 16 17 17 16 15 15 15 14 15 16 16 16 16 17 18 17 17 17 17 16 17 17 16 15 15 16 17 17 18 19 20
16 15 14 14 16 18 18 17 16 15 13 12 12 13 13 13 13 15 18 20 20 22 23 15 11 14 13 6 3 3 3 4 7 8 7 6 5 4 3 3 3 2 2 1 3 4 5 5 6 9 11 13 13 15 16 15 15 15 16 17 15 14 15 16 16 16 17 18 18 18 18 17 17 16 17 17 16 15 15 16 16 17 17 18 20
17 15 15 16 18 19 18 17 15 14 14 14 14 14 14 14 14 14 17 20 21 23 23 15 12 13 8 3 2 3 2 4 7 7 7 6 5 5 4 4 3 2 1 0 1 3 5 4 6 8 10 11 12 13 13 12 12 13 15 16 15 15 16 17 17 17 17 18 18 18 18 18 17 17 17 17 16 15 15 15 15 16 16 17 20
17 16 16 17 19 19 18 17 15 14 14 14 14 14 15 16 16 16 17 19 20 23 22 16 13 14 8 4 3 1 3 4 6 5 6 7 6 6 7 6 5 3 2 1 1 3 5 5 7 8 9 9 10 10 11 10 10 12 15 15 15 16 17 17 17 17 17 18 19 19 18 18 17 17 17 17 16 15 14 14 14 15 15 16 19
17 16 17 19 21 20 18 17 15 15 15 14 14 15 16 17 17 18 18 19 19 21 23 18 14 15 12 6 3 2 3 5 5 2 4 7 7 7 9 8 7 5 3 3 1 3 4 6 7 7 7 7 8 9 10 9 10 13 14 15 15 16 17 17 16 16 17 18 19 18 18 18 18 18 17 17 16 15 14 14 14 14 14 16 19
17 17 18 20 21 20 18 17 16 15 15 14 14 15 16 17 17 18 17 18 19 21 23 20 16 16 14 10 6 4 3 6 5 2 2 5 7 8 10 10 9 8 6 4 2 1 3 6 5 4 4 6 8 9 8 8 10 13 14 14 15 16 16 15 15 16 18 18 18 18 18 18 18 18 17 16 15 14 14 14 14 14 15 16 19
18 18 20 21 21 20 18 17 16 15 15 15 15 15 16 16 16 17 17 17 19 21 22 22 19 17 15 12 8 6 6 6 7 6 4 2 5 7 9 10 10 10 8 5 2 2 3 3 3 2 4 6 7 7 7 9 11 13 13 13 14 15 14 14 16 18 18 18 18 18 18 18 18 18 17 16 15 15 14 14 14 15 16 17 19
19 19 21 21 20 19 17 16 16 16 17 16 15 15 16 16 16 16 16 16 17 19 20 22 21 18 16 14 10 7 7 6 7 8 4 3 3 4 7 9 8 10 10 6 4 3 3 2 1 3 5 6 5 5 7 9 11 12 12 12 13 14 14 16 19 19 19 19 19 19 18 18 18 18 17 16 16 15 15 15 16 17 18 18 19
20 20 20 19 18 18 16 16 15 16 17 17 15 15 16 16 16 16 16 16 16 18 19 19 20 19 18 16 13 10 8 5 8 9 4 3 2 3 8 10 7 9 11 9 6 4 2 1 3 3 3 4 4 5 7 9 10 11 12 12 13 13 15 18 20 20 21 22 22 21 19 17 17 17 17 17 17 16 16 17 17 18 19 19 21
22 21 20 19 18 17 15 15 14 15 16 17 16 16 16 16 16 16 16 17 16 17 18 18 18 19 18 17 16 14 12 9 11 13 9 4 3 3 8 10 8 6 7 9 9 5 2 1 3 3 4 4 4 6 7 8 10 10 12 12 12 14 17 20 21 22 23 23 23 21 18 17 17 17 17 17 17 17 17 18 19 20 20 21 24
23 22 21 19 18 16 15 14 14 14 14 15 15 15 15 16 15 15 15 16 16 16 17 17 18 19 17 16 16 15 15 13 13 15 13 10 7 5 6 8 7 5 4 7 8 4 3 5 6 6 5 5 5 6 7 8 10 10 11 12 14 17 20 22 23 23 23 22 21 19 17 16 17 17 17 17 17 18 18 19 20 21 22 25 27
25 24 23 21 19 17 16 15 14 14 14 14 14 14 14 14 14 14 14 14 15 15 16 16 16 16 16 15 14 14 14 12 11 13 13 12 10 7 6 5 4 4 3 5 9 8 8 9 8 6 5 6 6 7 8 9 10 11 12 14 16 19 21 23 23 22 21 20 18 17 16 16 16 17 17 17 18 18 18 20 22 23 25 27 29
28 26 24 22 20 17 15 14 14 14 14 14 14 14 14 14 14 14 14 13 14 14 14 14 13 12 13 13 13 12 12 10 9 10 11 11 12 12 9 5 4 5 5 7 11 9 5 5 7 8 6 6 7 7 8 9 10 12 14 16 18 20 22 22 21 20 18 17 16 15 16 16 16 16 17 17 18 18 20 22 24 26 27 29 31
28 26 24 22 20 18 16 14 15 15 15 15 15 14 14 14 14 14 14 14 14 14 13 12 12 11 11 12 12 11 10 9 8 8 9 9 11 15 15 8 5 4 4 6 8 7 4 2 2 7 8 7 7 8 9 10 11 12 15 18 19 20 19 19 19 19 17 15 15 15 16 16 17 17 18 18 19 20 21 23 24 26 27 29 32
28 26 24 22 20 18 16 15 15 16 16 15 15 14 14 14 14 14 14 14 14 14 13 12 12 11 11 11 11 10 8 8 7 7 9 9 9 13 17 15 9 3 2 3 4 5 6 3 2 6 9 8 7 7 9 10 12 14 16 18 18 17 17 18 20 20 17 16 15 16 17 17 17 18 18 19 19 20 21 22 24 26 27 29 32
29 27 25 23 20 19 17 16 16 16 16 15 14 14 13 14 14 14 14 14 14 14 13 13 12 12 11 11 10 10 8 8 7 7 7 8 9 12 14 14 12 7 3 2 1 1 5 7 5 6 8 8 8 8 9 11 13 14 15 16 17 17 17 19 21 20 18 16 16 17 18 18 18 18 18 19 19 20 21 22 24 26 28 30 33
29 27 25 23 21 19 18 17 17 16 16 15 14 13 13 13 13 13 14 15 15 14 14 13 13 12 12 11 10 11 10 9 9 9 8 8 8 9 10 10 11 10 9 5 2 1 4 7 8 8 8 9 9 8 9 11 12 13 14 16 18 18 19 20 21 20 18 17 18 19 19 20 20 19 19 19 20 20 22 23 25 27 29 31 33
29 28 26 24 22 20 18 18 17 17 16 15 14 14 13 13 14 14 14 15 15 15 14 13 13 13 13 13 13 13 12 11 11 10 9 9 9 9 9 8 8 9 12 9 4 2 3 7 8 8 9 8 8 9 9 10 11 13 15 17 19 19 19 21 21 21 19 18 19 20 21 21 21 20 20 21 21 22 24 25 27 28 30 32 34
30 29 27 25 23 21 20 19 18 17 17 16 15 15 14 14 15 15 16 16 16 16 15 14 14 14 15 15 15 14 14 13 13 12 11 10 9 9 9 10 11 9 11 12 9 5 5 7 7 7 8 7 8 9 9 11 12 14 16 18 19 20 21 22 23 21 20 20 21 22 23 23 22 22 22 22 23 24 26 27 28 30 32 34 34
31 30 28 26 24 22 21 20 19 18 18 17 17 16 15 16 16 17 17 17 17 16 16 16 15 15 16 17 17 16 15 14 13 12 12 10 9 9 8 9 12 11 11 15 13 8 6 7 7 7 7 7 8 9 11 13 15 16 17 18 20 22 24 25 25 23 22 22 22 23 24 24 23 23 23 24 25 26 27 28 29 31 33 33 33
32 31 29 27 25 23 22 21 20 19 18 18 18 17 17 17 18 18 18 18 18 18 18 17 17 18 19 19 19 17 16 15 14 13 12 11 9 9 8 8 10 10 10 13 13 9 6 7 7 8 7 8 9 11 12 15 17 17 18 20 22 24 26 27 26 25 24 24 24 25 25 25 23 23 24 24 26 27 28 29 31 32 32 32 32
33 31 30 28 26 24 23 22 21 19 19 19 19 19 18 19 19 20 19 19 19 19 19 20 20 21 21 21 19 17 16 15 15 13 12 11 9 8 8 6 8 10 10 10 12 10 7 6 8 9 8 8 9 11 13 15 17 17 19 21 23 25 27 28 28 26 26 26 26 26 26 25 24 24 25 26 27 28 29 31 31 32 32 32 33
34 32 30 28 26 25 24 23 22 20 20 20 20 20 19 19 20 21 21 20 20 20 20 21 22 22 21 21 19 18 16 16 15 14 12 11 9 8 8 6 7 10 11 11 11 11 9 7 7 8 8 8 9 11 14 16 16 17 19 21 24 26 29 29 28 27 27 27 26 26 26 26 25 25 26 28 29 30 31 31 31 31 31 33 34
34 33 31 29 27 26 26 24 23 21 21 21 21 21 20 20 20 21 21 21 21 21 21 22 22 21 21 21 20 18 17 16 16 14 12 10 9 7 7 8 10 11 12 12 11 11 9 8 7 7 8 9 10 12 15 17 18 19 21 23 25 27 30 30 28 26 27 27 27 27 28 27 26 27 28 29 30 31 31 32 32 31 32 33 34
35 34 32 30 28 27 26 25 23 22 22 22 22 21 21 21 21 21 21 21 22 22 22 21 20 20 20 19 18 18 17 16 16 14 12 10 9 8 9 12 12 12 12 11 10 9 8 7 7 7 8 9 11 13 15 17 19 20 23 25 27 28 30 30 28 26 27 29 29 29 29 28 28 29 30 31 31 31 31 32 33 33 33 33 34
36 35 33 31 29 28 27 25 24 23 23 23 22 22 22 22 22 22 22 22 23 22 21 20 20 20 19 18 17 16 15 14 14 13 12 10 9 10 12 13 13 11 10 9 8 7 7 7 6 7 8 9 11 13 14 16 18 20 22 24 26 28 30 30 28 26 27 29 31 31 29 28 30 31 31 32 31 31 32 33 33 34 35 35 35
36 36 34 32 30 29 27 26 24 24 24 24 24 23 23 23 23 23 23 23 23 22 21 20 19 20 19 17 16 15 13 11 10 11 12 11 11 13 14 13 11 10 9 8 7 6 6 6 6 6 8 9 11 13 15 16 18 20 21 22 24 27 29 30 28 25 27 30 31 32 31 30 31 33 33 33 33 33 33 34 35 36 36 36 35
37 36 34 32 31 30 28 26 25 25 25 25 24 24 24 24 24 23 23 23 23 22 21 20 19 19 18 17 15 13 12 9 8 9 11 11 11 13 13 12 10 9 7 6 5 5 5 5 5 6 8 9 12 14 15 17 18 20 22 22 23 25 27 29 28 25 25 28 31 33 32 31 32 34 35 34 34 34 35 35 36 37 36 36 35
37 35 34 33 32 31 29 27 26 26 26 25 25 24 25 25 24 23 23 24 23 22 22 20 20 19 18 16 14 12 11 9 8 9 11 11 11 11 11 10 9 7 6 5 5 4 4 5 5 5 7 10 12 14 14 16 18 19 21 21 22 24 25 26 25 25 25 27 29 31 33 32 31 34 36 35 35 36 36 36 37 37 36 36 36
37 36 35 35 33 32 30 29 28 27 27 26 25 25 25 25 25 25 24 24 24 22 21 21 21 20 18 15 13 11 10 10 9 11 13 12 11 10 9 8 7 5 5 5 4 4 4 4 4 4 6 9 12 13 13 15 17 19 20 21 21 23 23 20 18 22 26 27 27 29 32 33 32 33 36 36 36 36 36 36 37 37 37 37 37
37 37 36 35 34 32 31 29 28 28 27 26 25 26 26 26 25 25 25 24 24 23 21 21 21 20 18 16 13 11 10 11 12 13 12 11 9 8 7 7 6 4 3 4 4 4 4 4 4 5 6 9 11 12 13 14 17 18 19 21 21 22 23 20 19 23 26 26 25 26 30 33 33 33 36 36 36 36 36 37 38 38 38 38 38
37 36 35 34 34 33 31 30 29 29 27 27 26 27 27 26 26 26 25 24 24 23 22 22 22 21 18 16 14 11 10 12 13 12 10 10 8 6 6 7 6 3 3 4 4 4 4 4 4 5 7 9 10 11 12 14 16 17 17 20 22 22 23 23 24 26 26 25 24 23 26 32 34 33 35 36 36 36 36 37 39 39 39 39 38
36 34 35 36 35 33 32 31 30 30 28 27 27 27 27 27 27 26 25 24 25 24 23 24 23 20 18 16 14 12 12 13 13 12 10 9 8 5 6 8 6 3 4 5 4 3 4 3 4 6 7 8 8 9 11 13 15 16 16 19 20 21 23 25 26 27 26 25 24 21 22 30 34 32 35 37 36 36 36 37 39 39 39 40 39
37 37 38 38 36 34 34 33 32 31 30 29 28 28 28 28 27 27 25 25 25 24 24 24 22 20 18 16 15 14 13 13 13 12 10 9 7 4 5 7 7 5 6 5 3 2 3 2 3 6 7 7 7 8 11 13 15 16 17 18 19 19 22 25 27 28 26 24 24 19 19 28 33 31 34 38 36 35 37 38 39 39 40 40 40
37 38 39 39 37 36 35 34 34 33 31 30 29 28 28 28 28 27 25 24 24 25 25 23 21 19 17 16 16 15 14 12 12 11 10 8 6 3 3 5 6 7 7 6 3 3 3 1 2 5 6 6 6 8 10 12 14 16 16 18 19 20 22 24 25 28 28 24 23 20 19 27 32 30 33 38 36 34 37 39 39 40 41 41 41
35 37 39 38 37 37 36 36 35 34 33 31 30 30 29 29 29 28 25 25 25 25 24 23 22 20 17 16 16 16 15 13 12 11 11 8 7 5 3 4 6 8 9 7 4 4 3 1 1 4 5 4 5 7 8 11 13 15 16 18 20 20 21 19 17 23 28 25 22 23 22 26 30 29 30 35 35 32 35 40 41 41 42 43 42
37 39 39 38 36 36 37 37 36 35 34 33 32 31 30 31 31 28 26 26 27 25 23 23 22 20 18 17 16 16 16 15 13 13 12 10 8 6 5 4 5 8 9 8 5 5 5 3 1 2 3 3 4 5 6 9 12 14 17 18 19 19 20 18 15 19 25 25 23 24 24 27 31 30 28 29 29 31 36 40 42 43 43 43 43
36 36 35 35 35 35 35 36 36 35 34 33 33 32 31 32 31 28 26 28 28 26 25 24 23 20 19 20 19 18 18 17 15 14 13 12 10 7 6 6 6 7 9 9 7 7 7 5 3 1 2 2 3 4 5 8 11 14 17 19 20 19 19 20 19 16 14 18 25 28 26 26 29 30 28 20 15 23 37 41 41 42 43 44 44
Wind_Direction
189 187 186 193 202 204 204 205 203 208 213 218 232 246 260 265 271 285 271 256 252 214 209 205 174 171 186 181 176 166 154 146 135 121 112 101 93 86 79 75 71 66 63 61 64 68 64 52 43 39 42 50 56 58 58 60 60 59 59 57 54 52 50 46 43 40 36 36 37 35 32 30 27 25 24 23 21 19 17 16 13 8 4 0 354
203 205 206 210 216 215 215 213 211 216 223 232 244 256 267 269 267 269 256 253 241 196 199 200 182 186 197 184 175 165 154 147 135 123 114 101 93 89 83 76 70 62 58 58 60 69 72 59 54 56 60 63 65 63 59 60 61 61 60 56 52 51 49 46 44 40 34 33 34 33 31 29 27 24 23 21 19 18 16 16 15 13 11 9 5
221 221 221 228 234 233 231 227 224 228 238 246 251 258 263 261 257 255 245 233 213 198 199 188 176 181 191 181 173 164 154 147 137 127 118 107 98 94 89 78 67 61 60 64 67 71 73 69 68 71 72 71 69 66 61 56 55 57 57 54 51 48 47 44 41 40 36 31 31 31 29 28 27 24 22 20 17 15 13 13 14 12 10 9 7
231 233 234 239 248 250 247 241 239 240 247 253 253 254 253 248 244 232 196 188 197 199 192 179 171 174 185 181 172 164 154 146 139 131 126 120 112 100 89 75 65 62 65 73 79 80 78 76 77 78 76 72 70 68 65 60 57 56 54 52 50 46 44 42 39 38 36 31 29 29 26 26 25 23 21 18 16 13 10 9 10 10 8 7 6
232 237 240 245 252 254 250 247 245 243 245 249 245 242 240 230 219 205 173 161 174 185 187 182 176 174 182 181 171 163 153 146 142 135 129 124 118 104 84 70 63 65 74 82 83 83 84 84 83 81 78 74 72 68 66 64 62 58 54 50 48 45 41 40 38 36 35 31 26 26 25 25 24 21 20 17 14 12 10 8 8 7 7 5 4
233 237 241 246 248 245 242 241 239 235 234 235 229 224 223 211 193 179 167 163 161 166 178 177 172 172 177 180 172 161 154 150 146 141 135 127 115 98 82 69 62 69 86 89 83 83 85 87 87 83 79 76 72 69 66 63 61 57 53 49 45 43 40 37 37 35 34 31 26 25 25 23 22 20 19 16 13 11 9 8 6 5 4 3 1
237 239 240 242 240 235 233 231 226 223 218 216 214 210 208 198 184 172 165 161 155 154 162 164 164 169 173 176 170 160 157 155 149 144 139 129 111 93 80 65 60 73 92 94 89 86 84 85 86 84 80 75 71 67 64 60 56 53 48 45 40 38 36 33 34 33 32 31 27 24 23 22 20 19 17 14 12 11 9 8 5 4 3 2 1
238 239 236 236 235 233 230 221 213 207 203 200 201 203 198 185 178 177 173 164 156 150 149 151 153 161 168 171 167 163 163 159 154 150 141 131 114 98 82 68 66 77 85 91 94 92 87 84 84 85 83 76 69 62 60 58 51 46 42 39 35 32 30 30 31 31 30 28 25 21 19 19 17 16 14 12 10 9 9 7 5 4 3 2 360
236 238 235 233 233 230 222 212 204 194 187 183 186 191 187 179 171 175 182 171 159 150 143 144 146 152 161 165 163 164 165 160 157 151 143 135 120 104 89 78 77 77 75 78 81 82 80 77 77 81 83 81 73 61 56 55 48 41 36 33 30 26 25 26 27 27 26 24 21 19 17 15 13 12 10 9 7 6 7 6 5 5 3 1 359
235 238 234 230 226 221 213 205 196 185 178 174 177 180 177 181 172 166 182 179 165 154 145 143 141 143 148 153 157 158 157 157 154 147 141 136 123 109 95 88 85 79 74 71 67 65 64 63 66 69 72 75 70 60 53 50 43 35 31 27 24 22 21 22 22 21 21 19 16 14 12 10 8 7 6 5 4 3 4 3 2 2 1 359 357
236 237 232 224 218 213 205 196 188 180 178 175 174 172 169 178 176 163 174 177 169 160 150 143 137 136 139 142 146 148 149 151 148 144 142 135 125 115 101 93 90 83 75 70 65 62 60 60 63 63 64 65 61 58 55 51 44 34 27 24 20 19 18 17 17 16 15 13 10 8 6 5 3 2 2 1 359 360 1 360 358 357 357 355 353
237 236 229 220 215 209 199 189 186 183 182 180 176 172 169 173 173 167 170 168 163 160 156 149 136 127 129 134 139 143 149 155 154 151 149 140 129 118 105 94 90 89 80 70 66 62 60 62 64 64 65 67 66 62 56 50 47 37 25 20 18 16 14 13 12 10 9 7 4 2 0 359 357 356 355 355 354 354 354 355 354 353 353 351 349
238 234 227 220 212 202 193 188 188 187 187 187 181 175 176 177 171 170 175 169 161 159 161 156 138 122 118 121 127 138 150 162 166 164 164 158 147 133 113 96 95 97 85 71 68 61 60 66 68 68 68 68 67 61 54 46 43 37 23 17 16 13 10 9 7 5 3 2 0 358 356 353 351 349 349 348 347 348 349 349 349 349 349 349 347
237 234 227 220 209 197 192 190 189 187 189 192 187 180 183 187 178 173 178 177 172 167 166 162 147 139 137 122 110 126 146 161 166 169 173 173 170 163 140 114 118 118 101 75 58 47 50 61 67 72 72 68 63 58 52 45 38 33 24 19 17 10 7 5 2 1 358 357 356 353 351 348 346 344 343 342 340 341 344 344 345 346 347 347 348
233 232 226 218 208 199 195 194 192 189 192 196 193 189 190 195 193 184 180 178 178 176 175 178 167 152 141 129 128 133 156 182 173 172 178 179 184 181 169 156 150 142 132 83 36 27 23 40 66 72 72 69 62 55 50 43 36 30 23 22 18 6 2 1 358 356 353 352 352 350 348 345 342 340 339 339 336 336 340 342 344 345 346 348 352
229 228 224 215 208 203 200 198 196 196 200 202 201 199 198 201 204 200 188 180 180 181 185 191 185 166 141 104 134 137 224 220 179 173 180 181 191 191 188 194 191 183 162 136 4 6 2 31 73 73 69 64 56 52 45 38 33 26 21 20 16 4 359 358 355 352 350 349 349 348 346 344 342 339 337 335 333 334 337 341 343 342 344 350 353
225 224 220 211 206 204 203 201 200 202 207 211 211 209 208 208 210 209 203 197 191 188 192 199 198 193 182 140 121 156 231 195 163 178 193 187 197 200 197 202 208 212 204 222 312 354 8 60 88 77 66 55 47 42 32 28 25 20 20 18 11 3 359 359 356 349 348 348 347 346 345 344 342 339 336 332 331 333 335 337 337 337 341 346 349
222 220 214 207 204 203 205 206 206 209 214 219 220 217 215 213 214 215 213 211 204 196 197 203 203 206 211 204 192 212 181 150 141 177 207 200 208 208 204 201 206 223 224 216 274 354 44 87 92 75 56 41 33 22 12 17 22 19 18 15 8 360 358 1 358 351 349 348 346 346 346 344 342 338 334 330 330 332 332 331 330 332 335 338 342
218 215 207 204 204 205 207 211 215 220 226 228 227 226 223 217 215 218 218 215 211 204 202 204 203 207 217 221 223 233 184 158 160 158 179 216 220 211 209 206 209 222 220 210 239 13 90 102 89 63 37 21 11 4 7 20 22 19 16 12 5 356 356 0 357 351 350 350 350 348 347 343 340 335 332 330 329 328 327 325 324 325 327 329 335
215 210 204 203 206 208 210 214 221 230 236 237 234 231 227 221 216 217 220 218 216 214 209 206 206 208 210 214 227 236 208 194 199 184 144 175 219 214 210 208 211 214 209 197 181 149 125 115 91 48 9 356 356 3 21 28 22 18 15 8 358 351 353 354 351 350 349 350 351 348 344 339 336 333 331 329 326 323 321 319 318 319 320 322 326
209 206 202 204 208 212 216 221 228 236 240 240 238 233 229 225 221 220 221 220 220 221 219 215 213 214 212 211 215 210 198 199 201 190 149 130 199 222 206 201 209 210 205 191 168 164 152 132 42 359 354 353 9 28 30 25 20 18 12 2 351 348 351 350 349 350 347 345 345 343 340 337 334 332 331 329 324 319 316 314 313 314 315 315 317
201 202 203 205 211 216 220 224 229 234 237 238 235 231 228 226 227 226 226 225 223 222 224 224 222 221 220 217 209 195 188 184 186 188 172 130 153 208 197 191 198 206 208 200 175 173 204 280 334 348 14 35 45 29 21 21 16 13 7 356 351 351 350 349 350 348 344 341 340 338 338 337 335 333 332 330 325 319 314 311 311 312 311 310 309
199 202 205 208 214 218 220 221 223 227 230 231 230 228 226 226 228 229 229 230 229 227 225 225 223 220 222 223 219 214 209 208 205 201 196 171 143 174 192 193 198 194 199 205 201 210 252 350 54 74 72 58 37 18 18 18 11 8 4 357 355 353 349 349 349 345 342 341 339 337 336 336 335 333 333 330 326 321 315 312 311 310 308 307 307
200 203 206 210 215 217 217 217 219 220 221 222 222 223 224 225 227 228 230 231 232 230 225 222 221 219 220 222 224 224 220 223 224 215 211 205 184 163 167 184 199 194 186 201 203 194 125 103 90 79 62 40 31 25 20 14 10 8 4 358 354 350 347 347 346 345 343 341 340 337 334 333 332 331 329 326 324 322 318 316 315 313 312 309 307
199 203 207 211 216 219 219 219 220 219 216 215 218 221 225 228 229 228 228 230 229 228 223 220 220 221 222 219 217 218 217 221 224 217 214 207 188 160 143 157 175 172 160 145 137 124 113 101 76 55 44 34 32 28 19 13 12 9 1 354 349 345 344 345 345 347 346 344 343 339 335 334 332 331 330 326 325 324 322 322 322 322 320 314 310
201 204 207 210 215 218 220 220 220 218 215 215 219 224 228 232 233 229 225 224 222 219 217 214 212 212 213 210 206 207 209 209 208 208 209 206 194 171 145 111 96 119 119 123 128 121 114 103 61 38 35 35 31 26 19 13 10 5 356 349 344 343 343 346 350 354 353 350 347 345 343 341 338 336 334 331 330 329 328 327 326 325 321 314 310
205 206 207 209 211 212 213 216 217 216 216 218 221 226 230 231 229 225 219 215 212 209 208 206 202 197 196 197 196 193 196 197 195 201 203 205 204 185 163 135 86 74 85 112 118 99 88 152 55 27 28 32 27 21 13 5 359 356 351 346 345 345 346 352 359 1 359 355 351 349 348 346 344 341 338 336 336 335 332 330 327 326 321 316 313
208 207 207 207 209 209 210 213 216 216 218 220 223 227 230 228 222 217 212 207 205 203 201 198 194 190 188 190 190 185 183 187 188 195 199 199 202 194 180 165 146 110 60 96 108 81 67 75 56 21 21 22 17 9 359 350 349 349 349 351 352 352 353 359 3 4 2 358 354 353 351 349 347 343 341 340 339 337 333 330 328 327 324 321 319
209 208 207 208 210 212 212 214 215 217 219 220 223 226 226 223 216 212 207 201 200 199 197 193 188 187 185 183 184 178 170 173 175 176 184 188 190 193 197 190 172 154 134 133 185 116 63 49 38 16 11 9 1 356 347 341 346 351 357 3 3 360 357 359 3 4 4 1 358 356 354 353 350 346 344 342 339 337 334 331 329 327 326 325 323
209 208 208 209 211 213 215 216 216 217 219 220 221 222 220 215 210 208 203 199 196 193 191 190 185 183 180 175 175 170 163 163 161 154 150 151 160 171 188 202 197 182 161 142 138 129 69 45 34 15 4 0 353 350 345 345 356 6 11 11 6 1 358 359 3 5 5 2 359 359 358 356 353 351 349 346 343 340 336 333 331 329 329 327 326
208 207 207 208 211 212 214 218 217 217 218 218 218 218 215 211 205 202 198 196 194 187 184 186 185 183 177 169 166 162 159 158 151 141 136 133 133 138 147 157 167 177 166 144 125 116 70 46 37 20 7 4 355 349 353 4 16 19 15 10 7 3 360 360 4 7 6 2 0 360 359 358 356 354 352 350 346 342 339 336 334 333 332 330 329
206 206 206 208 211 213 215 217 217 216 215 214 214 215 212 209 205 200 194 191 191 185 180 182 182 180 175 166 163 160 159 157 149 143 138 133 130 124 127 129 121 127 145 133 121 125 93 56 43 30 18 13 5 4 16 27 26 18 13 11 10 7 4 4 7 9 8 4 2 2 1 0 358 356 354 351 348 344 341 339 337 336 335 334 332
206 205 206 209 212 214 215 216 216 215 214 212 211 211 208 206 202 199 193 189 189 185 181 180 178 177 174 166 161 161 162 159 151 150 145 139 136 124 116 120 112 106 118 120 117 126 113 74 54 42 30 27 32 33 33 27 20 15 14 15 13 11 9 7 9 11 10 6 4 3 3 2 360 358 356 352 349 346 343 341 339 338 338 336 334
207 207 208 208 210 214 215 215 215 214 215 213 211 209 206 203 199 195 193 189 188 185 182 179 175 173 172 168 164 164 167 164 156 154 152 146 145 134 122 119 111 102 104 112 116 117 105 78 58 50 49 51 51 43 29 19 16 14 14 15 14 12 11 8 8 10 10 8 6 4 4 3 1 358 356 352 349 347 345 343 341 340 339 337 335
207 208 210 209 210 212 213 213 213 213 213 213 210 207 206 204 198 194 193 191 189 187 183 178 174 172 170 169 168 167 168 166 160 157 157 154 153 145 132 120 107 100 97 108 116 112 101 79 54 52 61 61 49 35 25 19 16 13 12 13 12 11 10 8 6 7 9 8 6 4 3 3 1 358 355 353 350 348 346 346 344 343 340 337 335
205 207 209 210 211 212 211 211 210 211 212 210 208 206 206 205 200 195 192 192 193 191 185 179 175 174 174 172 171 171 171 167 161 161 161 159 159 153 139 124 110 105 103 107 109 105 98 81 59 55 56 51 39 27 21 18 16 15 12 11 10 9 9 8 5 5 7 7 5 3 3 2 360 358 356 353 351 349 348 347 345 342 340 338 336
204 205 206 208 210 211 211 210 211 211 212 209 206 204 203 203 201 197 194 193 195 192 187 182 179 179 180 178 174 176 178 172 166 166 168 164 162 159 146 129 118 115 113 106 99 93 85 71 63 60 48 41 36 26 17 13 11 12 11 11 10 8 7 8 8 5 4 6 5 3 2 2 1 358 356 353 352 351 349 347 344 340 338 336 335
204 204 205 207 210 211 211 212 212 211 210 208 206 204 202 201 201 199 196 195 196 193 187 184 184 185 185 183 180 182 186 182 175 173 173 171 169 161 146 133 125 122 116 106 96 87 76 64 60 54 41 34 29 24 18 11 6 4 4 6 10 9 6 6 8 6 3 4 4 3 1 1 0 358 356 355 354 353 351 348 345 341 337 334 333
203 203 205 206 209 210 212 212 211 210 208 206 206 204 202 201 201 199 197 197 197 194 190 189 190 193 193 191 187 185 188 189 185 183 182 179 171 158 146 137 132 127 118 108 99 86 72 64 57 45 34 26 19 16 15 13 9 6 360 356 360 5 5 4 6 5 3 2 2 3 4 2 0 0 359 358 358 355 352 349 346 343 339 334 332
204 204 205 205 207 209 211 211 209 208 207 205 204 204 202 202 202 200 198 198 196 192 190 192 194 197 197 194 190 186 188 192 194 194 192 186 172 158 150 144 140 132 122 111 100 86 71 63 59 42 29 22 16 12 11 9 5 2 359 352 350 356 359 2 7 8 3 359 357 359 3 2 359 359 358 357 359 356 352 351 348 345 340 335 332
203 204 205 206 206 207 208 208 208 207 206 205 205 204 203 202 201 199 198 198 195 191 189 191 194 195 194 192 189 188 192 196 198 195 193 189 180 166 157 153 148 137 125 113 101 90 75 68 62 42 25 18 12 7 5 3 357 355 358 356 353 354 354 356 5 12 5 357 353 354 360 0 354 353 355 354 356 356 352 351 350 345 342 338 333
201 203 203 204 206 206 205 205 206 206 206 206 206 206 205 203 200 198 198 197 194 193 193 191 191 192 192 191 190 193 199 204 198 186 179 176 177 172 165 159 152 141 130 118 107 97 84 78 64 37 19 12 8 3 360 1 0 359 360 358 353 353 352 351 359 10 7 356 349 348 355 359 352 348 351 353 354 355 352 351 350 346 343 341 337
200 201 202 202 204 206 205 204 205 206 205 206 206 206 206 204 201 199 198 196 196 198 198 195 192 191 190 190 193 197 204 202 188 176 170 169 172 176 173 166 156 145 137 128 120 109 96 88 66 35 12 5 7 8 5 2 2 3 2 359 353 350 350 346 343 354 1 356 345 341 348 358 353 345 348 353 353 354 353 351 350 347 345 344 341
198 200 199 200 203 204 204 204 205 206 206 205 206 205 204 204 203 202 199 197 198 199 199 199 198 194 190 191 194 198 202 195 181 173 172 171 171 176 178 176 169 159 147 136 125 112 102 93 67 40 16 6 9 12 8 360 359 5 6 3 358 351 348 344 333 340 355 355 345 338 342 353 354 344 346 352 353 353 355 354 352 349 347 346 343
198 196 196 199 203 203 203 204 205 206 206 205 205 204 203 204 204 203 201 200 201 200 200 202 202 196 193 194 194 191 190 188 183 181 182 175 167 167 177 183 183 181 169 147 126 112 110 96 57 36 20 9 10 13 9 0 358 3 4 0 360 354 349 346 339 342 354 355 346 336 335 347 352 345 343 350 353 354 357 356 354 352 349 348 344
194 192 194 199 202 203 204 205 206 206 206 205 204 203 203 204 204 202 202 203 205 205 203 203 202 200 200 201 198 192 187 189 192 195 192 180 167 161 174 185 191 194 179 159 134 121 125 103 41 29 24 15 15 17 14 7 3 4 1 355 357 354 350 349 347 350 359 358 349 339 331 342 350 344 341 348 351 354 358 358 356 354 350 348 346
192 192 195 199 200 202 206 206 205 206 205 204 203 202 203 204 203 202 204 206 207 207 205 205 205 205 207 208 205 200 195 194 198 199 194 182 171 161 171 190 204 207 192 180 162 146 141 114 31 26 27 21 23 24 18 12 9 7 2 356 355 352 348 351 353 356 3 2 355 344 327 336 346 343 340 347 350 353 359 359 356 354 351 349 347
191 192 195 197 199 202 205 205 205 205 205 203 201 200 202 204 202 202 205 207 207 206 206 207 208 208 211 214 210 207 205 201 198 198 196 187 182 185 190 204 218 216 205 201 195 177 163 133 23 26 27 21 25 25 17 13 10 8 3 359 358 352 347 348 349 349 356 1 358 349 329 331 343 343 340 346 349 351 356 357 355 355 353 350 348
188 191 193 195 199 202 203 203 203 203 203 202 200 199 200 202 200 201 205 207 206 206 207 209 209 209 214 218 215 214 214 211 204 201 202 202 202 213 224 225 225 218 210 208 201 190 194 204 13 22 19 16 26 25 15 11 9 5 1 358 356 352 346 345 338 337 347 356 358 350 335 332 342 342 339 344 350 351 353 353 354 356 355 352 349
190 193 192 193 197 201 203 203 202 202 202 200 198 199 201 201 199 201 205 206 205 206 207 208 210 213 217 220 221 221 219 216 212 209 210 213 215 225 244 243 227 217 213 211 202 199 208 216 228 7 0 5 26 25 10 8 7 3 360 356 354 351 346 341 330 330 342 352 355 349 339 336 343 344 339 340 346 351 353 352 354 357 355 351 350
190 190 189 191 195 199 202 203 202 203 203 199 197 199 200 200 201 203 205 204 204 206 207 208 210 214 218 220 224 228 226 220 217 217 217 219 221 233 249 243 227 216 210 204 197 196 202 207 213 288 329 357 29 23 4 3 5 3 0 356 353 352 347 341 337 333 333 344 351 349 341 337 341 344 345 342 336 344 351 353 354 355 354 351 350